MST,Max TemperatureF,Mean TemperatureF,Min TemperatureF,Max Dew PointF,MeanDew PointF,Min DewpointF,Max Humidity, Mean Humidity, Min Humidity, Max Sea Level PressureIn, Mean Sea Level PressureIn, Min Sea Level PressureIn, Max VisibilityMiles, Mean VisibilityMiles, Min VisibilityMiles, Max Wind SpeedMPH, Mean Wind SpeedMPH, Max Gust SpeedMPH,PrecipitationIn, CloudCover, Events, WindDirDegrees
2012-11-1,51,37,23,32,28,21,100,73,30,30.17,30.08,30.02,10,10,10,14,3,,0.00,3,,289
2012-11-2,46,34,23,32,24,19,100,73,34,30.23,30.16,30.11,10,10,10,15,6,20,0.00,2,,298
2012-11-3,51,34,17,25,21,16,100,67,28,30.30,30.25,30.22,10,10,10,15,6,21,0.00,2,,299
2012-11-4,53,38,23,30,26,21,100,70,35,30.43,30.36,30.30,10,10,10,21,8,28,0.00,2,,295
2012-11-5,53,42,30,32,31,28,100,73,44,30.43,30.39,30.35,10,10,10,23,15,31,0.00,2,,302
2012-11-6,57,40,24,34,29,23,100,72,31,30.40,30.34,30.28,10,10,10,21,12,23,0.00,2,,307
2012-11-7,55,36,17,28,23,18,100,68,33,30.27,30.13,30.02,10,10,10,8,5,,0.00,2,,289
2012-11-8,55,38,21,27,22,19,100,61,26,30.02,29.83,29.68,10,10,10,21,6,30,0.00,2,,169
2012-11-9,37,32,28,32,28,21,100,88,64,29.67,29.59,29.53,10,6,0,15,7,22,0.00,6,Snow,270
2012-11-10,30,18,6,28,14,3,100,79,50,29.81,29.64,29.53,10,9,0,21,9,25,0.00,4,Snow,292
2012-11-11,19,10,1,9,3,-2,92,73,49,30.25,30.03,29.81,10,10,7,25,9,36,0.00,2,,298
2012-11-12,28,16,3,21,10,0,100,75,47,30.37,30.31,30.25,10,10,7,10,4,,0.00,3,Snow,301
2012-11-13,32,24,17,27,22,18,100,85,69,30.32,30.29,30.25,10,10,10,7,2,,0.00,7,,140
2012-11-14,32,26,19,32,26,19,100,96,80,30.29,30.23,30.18,10,8,1,8,1,,0.00,7,Snow,24
2012-11-15,37,22,8,23,16,7,100,83,48,30.37,30.32,30.27,10,10,10,9,4,,0.00,0,,298
2012-11-16,35,24,12,28,22,12,100,84,60,30.27,30.17,30.10,10,10,10,12,4,,0.00,5,,295
2012-11-17,37,26,15,32,26,16,100,93,75,30.18,30.11,30.02,10,10,5,7,3,,0.00,6,Rain,212
2012-11-18,35,32,30,36,32,30,100,100,93,30.17,30.05,29.98,10,6,0,9,4,,0.00,8,Fog-Rain-Snow-Thunderstorm,108
2012-11-19,37,32,26,34,31,27,100,98,81,30.30,30.26,30.16,10,8,0,6,2,,0.00,7,Fog,294
2012-11-20,42,32,23,32,29,23,100,91,66,30.30,30.23,30.14,10,9,1,7,3,,0.00,1,,341
2012-11-21,48,36,23,32,28,23,100,81,43,30.14,30.03,29.95,10,10,2,24,6,30,0.00,5,Snow,233
2012-11-22,32,24,17,23,16,12,93,70,44,30.48,30.30,30.07,10,10,10,22,10,28,0.00,1,,300
2012-11-23,42,27,12,21,14,9,93,67,31,30.51,30.43,30.32,10,10,10,12,5,,0.00,1,,298
2012-11-24,44,29,14,32,21,14,100,74,34,30.31,30.17,30.05,10,10,10,13,5,,0.00,5,,298
2012-11-25,37,30,23,32,28,19,100,89,69,30.10,29.99,29.93,10,10,5,13,3,17,0.00,6,Snow,319
2012-11-26,32,21,10,19,16,9,100,79,51,30.27,30.21,30.11,10,10,10,10,4,,0.00,1,,288
2012-11-27,39,22,5,19,12,3,100,74,39,30.30,30.26,30.23,10,10,10,9,5,,0.00,1,,291
2012-11-28,44,29,14,25,18,12,100,73,33,30.29,30.19,30.07,10,10,10,7,4,,0.00,2,,284
2012-11-29,42,32,23,27,24,21,100,76,42,30.14,30.10,30.06,10,10,10,17,3,24,0.00,3,,309
2012-11-30,42,32,21,32,28,21,100,88,61,30.09,29.99,29.92,10,10,7,13,4,16,0.00,6,Rain,111